Location: Caixon
(43.4106°N, 0.0273°E)
Time: 21:45:37
(UTC+00:00)

Cosmos 1610 Rocket - Pass Details

Date: 16 October 2021
Orbit: 954 x 1001 km, 82.9° (Epoch: 07 December)

Event Time Altitude Azimuth Distance (km) Brightness Sun altitude
Rises 03:59:03 0° 351° (N) 3,660 7.5 -25.4°
Reaches altitude 10° 04:01:32 10° 350° (N) 2,715 6.8 -24.9°
Maximum altitude 04:07:46 81° 265° (W) 992 4.3 -23.8°
Drops below altitude 10° 04:14:01 10° 179° (S) 2,730 6.8 -22.7°
Sets 04:16:32 0° 178° (S) 3,681 7.5 -22.2°
